• Em Portugal
  • Lista de países
  • Para 7 dias
  • Temperatura da água
  • Mapas de satélite
  • Mapa do tempo
  • Widgets de tempo
  • user-avatar
    Iniciar Sessão

    Previsão horária em Vilnius

    Hoje, 23 Junho, Sábado

    Tempo Temperatura Precipitação Vento Pressão Humidade
    00:00 +10°C° 0 mm 2 m/s 748 mmHg 89%
    01:00 +11°C° 0 mm 1 m/s 748 mmHg 90%
    02:00 +11°C° 0 mm 1 m/s 748 mmHg 90%
    03:00 +11°C° 0 mm 1 m/s 748 mmHg 89%
    04:00 +11°C° 0 mm 1 m/s 748 mmHg 89%
    05:00 +11°C° 0 mm 1 m/s 748 mmHg 88%
    06:00 +12°C° 0 mm 1 m/s 748 mmHg 83%
    07:00 +14°C° 0 mm 1 m/s 748 mmHg 77%
    08:00 +15°C° 0 mm 1 m/s 748 mmHg 71%
    09:00 +16°C° 0 mm 1 m/s 748 mmHg 66%
    10:00 +18°C° 0 mm 1 m/s 748 mmHg 62%
    11:00 +19°C° 0 mm 1 m/s 747 mmHg 57%
    12:00 +19°C° 0,1 mm 1 m/s 747 mmHg 56%
    13:00 +20°C° 0,1 mm 1 m/s 747 mmHg 55%
    14:00 +19°C° 0 mm 1 m/s 747 mmHg 57%
    15:00 +19°C° 0,3 mm 1 m/s 747 mmHg 60%
    16:00 +19°C° 0,3 mm 1 m/s 747 mmHg 63%
    17:00 +18°C° 0,3 mm 1 m/s 746 mmHg 66%
    18:00 +16°C° 0,3 mm 1 m/s 746 mmHg 73%
    19:00 +15°C° 0,3 mm 1 m/s 746 mmHg 80%
    20:00 +14°C° 0,3 mm 1 m/s 746 mmHg 87%
    21:00 +13°C° 0 mm 1 m/s 746 mmHg 89%
    22:00 +12°C° 0 mm 1 m/s 745 mmHg 90%
    23:00 +12°C° 0 mm 1 m/s 745 mmHg 92%

    Amanhã, 24 Junho, Domingo

    Tempo Temperatura Precipitação Vento Pressão Humidade
    00:00 +10°C° 0,1 mm 2 m/s 745 mmHg 93%
    01:00 +10°C° 0,1 mm 2 m/s 745 mmHg 94%
    02:00 +10°C° 0,1 mm 2 m/s 745 mmHg 95%
    03:00 +10°C° 0,2 mm 2 m/s 745 mmHg 96%
    04:00 +10°C° 0,2 mm 2 m/s 745 mmHg 97%
    05:00 +10°C° 0,2 mm 2 m/s 745 mmHg 97%
    06:00 +10°C° 0,4 mm 3 m/s 745 mmHg 96%
    07:00 +11°C° 0,4 mm 3 m/s 745 mmHg 95%
    08:00 +11°C° 0,4 mm 3 m/s 744 mmHg 94%
    09:00 +11°C° 0,4 mm 3 m/s 744 mmHg 93%
    10:00 +12°C° 0,4 mm 3 m/s 744 mmHg 91%
    11:00 +12°C° 0,4 mm 3 m/s 744 mmHg 90%
    12:00 +13°C° 0,6 mm 3 m/s 745 mmHg 89%
    13:00 +13°C° 0,6 mm 4 m/s 745 mmHg 88%
    14:00 +14°C° 0,6 mm 4 m/s 745 mmHg 87%
    15:00 +13°C° 0,5 mm 4 m/s 745 mmHg 87%
    16:00 +13°C° 0,5 mm 4 m/s 745 mmHg 88%
    17:00 +13°C° 0,5 mm 4 m/s 745 mmHg 89%
    18:00 +12°C° 0,1 mm 3 m/s 745 mmHg 90%
    19:00 +13°C° 0,1 mm 2 m/s 746 mmHg 91%
    20:00 +12°C° 0,1 mm 2 m/s 746 mmHg 93%
    21:00 +10°C° 0 mm 2 m/s 746 mmHg 94%
    22:00 +10°C° 0 mm 1 m/s 746 mmHg 95%
    23:00 +9°C° 0 mm 1 m/s 746 mmHg 97%

    Depois de amanhã, 25 Junho, Segunda-feira

    Tempo Temperatura Precipitação Vento Pressão Humidade
    00:00 +8°C° 0 mm 2 m/s 747 mmHg 97%
    01:00 +8°C° 0 mm 2 m/s 747 mmHg 97%
    02:00 +8°C° 0 mm 2 m/s 747 mmHg 97%
    03:00 +8°C° 0 mm 2 m/s 747 mmHg 97%
    04:00 +8°C° 0 mm 2 m/s 747 mmHg 97%
    05:00 +9°C° 0 mm 2 m/s 747 mmHg 98%
    06:00 +9°C° 0,2 mm 3 m/s 747 mmHg 96%
    07:00 +10°C° 0,2 mm 3 m/s 747 mmHg 95%
    08:00 +11°C° 0,2 mm 3 m/s 747 mmHg 93%
    09:00 +12°C° 0,4 mm 4 m/s 748 mmHg 91%
    10:00 +12°C° 0,4 mm 4 m/s 748 mmHg 89%
    11:00 +13°C° 0,4 mm 4 m/s 748 mmHg 86%
    12:00 +13°C° 0,4 mm 4 m/s 748 mmHg 87%
    13:00 +13°C° 0,4 mm 4 m/s 748 mmHg 87%
    14:00 +13°C° 0,4 mm 4 m/s 748 mmHg 88%
    15:00 +13°C° 0,4 mm 4 m/s 748 mmHg 89%
    16:00 +13°C° 0,4 mm 4 m/s 748 mmHg 90%
    17:00 +13°C° 0,4 mm 5 m/s 748 mmHg 90%
    18:00 +13°C° 0,4 mm 4 m/s 749 mmHg 91%
    19:00 +12°C° 0,4 mm 4 m/s 749 mmHg 92%
    20:00 +12°C° 0,4 mm 3 m/s 749 mmHg 93%
    21:00 +12°C° 0,1 mm 3 m/s 749 mmHg 94%
    22:00 +12°C° 0,1 mm 3 m/s 749 mmHg 95%
    23:00 +11°C° 0,1 mm 3 m/s 749 mmHg 95%

    26 Junho, Terça-feira

    Tempo Temperatura Precipitação Vento Pressão Humidade
    00:00 +11°C° 0,2 mm 3 m/s 749 mmHg 95%
    01:00 +11°C° 0,2 mm 3 m/s 750 mmHg 96%
    02:00 +11°C° 0,2 mm 3 m/s 750 mmHg 96%
    03:00 +11°C° 0,5 mm 3 m/s 750 mmHg 96%
    04:00 +11°C° 0,5 mm 3 m/s 750 mmHg 96%
    05:00 +11°C° 0,5 mm 3 m/s 750 mmHg 96%
    06:00 +11°C° 0,2 mm 3 m/s 750 mmHg 95%
    07:00 +11°C° 0,2 mm 3 m/s 750 mmHg 94%
    08:00 +12°C° 0,2 mm 3 m/s 750 mmHg 94%
    09:00 +13°C° 0,3 mm 3 m/s 751 mmHg 91%
    10:00 +14°C° 0,3 mm 3 m/s 751 mmHg 88%
    11:00 +16°C° 0,3 mm 3 m/s 751 mmHg 85%
    12:00 +17°C° 0,9 mm 3 m/s 751 mmHg 82%
    13:00 +18°C° 0,9 mm 3 m/s 751 mmHg 80%
    14:00 +19°C° 0,9 mm 4 m/s 751 mmHg 77%
    15:00 +19°C° 0,9 mm 3 m/s 751 mmHg 78%
    16:00 +19°C° 0,9 mm 3 m/s 751 mmHg 79%
    17:00 +19°C° 0,9 mm 2 m/s 751 mmHg 80%
    18:00 +18°C° 0,6 mm 2 m/s 751 mmHg 83%
    19:00 +17°C° 0,6 mm 2 m/s 751 mmHg 87%
    20:00 +16°C° 0,6 mm 2 m/s 751 mmHg 90%
    21:00 +15°C° 0,5 mm 2 m/s 751 mmHg 92%
    22:00 +14°C° 0,5 mm 2 m/s 751 mmHg 93%
    23:00 +13°C° 0,5 mm 2 m/s 752 mmHg 95%

    27 Junho, Quarta-feira

    Tempo Temperatura Precipitação Vento Pressão Humidade
    00:00 +13°C° 0 mm 2 m/s 752 mmHg 95%
    01:00 +12°C° 0 mm 2 m/s 752 mmHg 95%
    02:00 +12°C° 0 mm 2 m/s 752 mmHg 96%
    03:00 +12°C° 0,1 mm 2 m/s 752 mmHg 96%
    04:00 +12°C° 0,1 mm 2 m/s 752 mmHg 96%
    05:00 +12°C° 0,1 mm 2 m/s 753 mmHg 96%
    06:00 +14°C° 0,1 mm 2 m/s 753 mmHg 92%
    07:00 +15°C° 0,1 mm 2 m/s 753 mmHg 89%
    08:00 +17°C° 0,1 mm 2 m/s 753 mmHg 85%
    09:00 +19°C° 0,3 mm 3 m/s 753 mmHg 79%
    10:00 +20°C° 0,3 mm 3 m/s 753 mmHg 73%
    11:00 +22°C° 0,3 mm 3 m/s 754 mmHg 67%
    12:00 +22°C° 0,4 mm 3 m/s 754 mmHg 67%
    13:00 +22°C° 0,4 mm 4 m/s 754 mmHg 68%
    14:00 +22°C° 0,4 mm 4 m/s 754 mmHg 68%
    15:00 +22°C° 0,4 mm 4 m/s 754 mmHg 72%
    16:00 +22°C° 0,4 mm 4 m/s 754 mmHg 75%
    17:00 +21°C° 0,4 mm 4 m/s 754 mmHg 79%
    18:00 +20°C° 0,1 mm 3 m/s 754 mmHg 82%
    19:00 +19°C° 0,1 mm 3 m/s 753 mmHg 85%
    20:00 +18°C° 0,1 mm 3 m/s 753 mmHg 88%
    21:00 +18°C° 0 mm 3 m/s 753 mmHg 90%
    22:00 +17°C° 0 mm 3 m/s 753 mmHg 91%
    23:00 +16°C° 0 mm 3 m/s 753 mmHg 92%

    28 Junho, Quinta-feira

    Tempo Temperatura Precipitação Vento Pressão Humidade
    00:00 +16°C° 0 mm 3 m/s 753 mmHg 93%
    01:00 +16°C° 0 mm 3 m/s 753 mmHg 94%
    02:00 +14°C° 0 mm 3 m/s 753 mmHg 96%
    03:00 +14°C° 0,1 mm 3 m/s 752 mmHg 95%
    04:00 +16°C° 0,1 mm 3 m/s 752 mmHg 95%
    05:00 +16°C° 0,1 mm 3 m/s 752 mmHg 94%
    06:00 +17°C° 0 mm 4 m/s 752 mmHg 90%
    07:00 +19°C° 0 mm 4 m/s 752 mmHg 85%
    08:00 +20°C° 0 mm 5 m/s 751 mmHg 81%
    09:00 +22°C° 0,1 mm 5 m/s 751 mmHg 77%
    10:00 +23°C° 0,1 mm 6 m/s 750 mmHg 72%
    11:00 +24°C° 0,1 mm 7 m/s 750 mmHg 68%
    12:00 +24°C° 0,1 mm 7 m/s 750 mmHg 69%
    13:00 +24°C° 0,1 mm 7 m/s 749 mmHg 69%
    14:00 +24°C° 0,1 mm 7 m/s 748 mmHg 70%
    15:00 +24°C° 0,4 mm 7 m/s 748 mmHg 73%
    16:00 +23°C° 0,4 mm 6 m/s 747 mmHg 77%
    17:00 +23°C° 0,4 mm 6 m/s 747 mmHg 81%
    18:00 +22°C° 1,5 mm 6 m/s 746 mmHg 84%
    19:00 +21°C° 1,5 mm 6 m/s 746 mmHg 88%
    20:00 +21°C° 1,5 mm 5 m/s 745 mmHg 92%
    21:00 +20°C° 0,4 mm 6 m/s 745 mmHg 93%
    22:00 +20°C° 0,4 mm 6 m/s 745 mmHg 93%
    23:00 +20°C° 0,4 mm 6 m/s 744 mmHg 94%
    Mostrar mais